DLH7A EHAM-EDDF

Flight info

Callsign DLH7A
Flight time 0h 37m
Altitude 35000
Route EDUPO Z739 MISGO DCT DIXAT DIXAT1A
Aircraft A320/M-SDE2E3FGIJ1LORWXYZ/HB1

Departure

Time 2026-05-06 09:49
Airport Amsterdam Airport Schiphol (EHAM)

Arrival

Time 2026-05-06 10:26
Airport Frankfurt Main Airport (EDDF)
Time Latitude Longitude Altitude Speed Heading
2026-05-06 09:20 52.30509 4.76249 -2 ft 0 kts 239°
2026-05-06 09:36 52.30510 4.76252 -2 ft 2 kts 239°
2026-05-06 09:36 52.30523 4.76288 -2 ft 4 kts 239°
2026-05-06 09:36 52.30536 4.76324 -2 ft 4 kts 239°
2026-05-06 09:37 52.30549 4.76360 -2 ft 4 kts 239°
2026-05-06 09:37 52.30555 4.76376 -2 ft 0 kts 239°
2026-05-06 09:39 52.30554 4.76374 -2 ft 1 kts 238°
2026-05-06 09:39 52.30522 4.76354 -2 ft 6 kts 173°
2026-05-06 09:39 52.30484 4.76387 -2 ft 10 kts 148°
2026-05-06 09:39 52.30421 4.76451 -2 ft 10 kts 148°
2026-05-06 09:40 52.30350 4.76530 -2 ft 17 kts 136°
2026-05-06 09:40 52.30329 4.76711 -3 ft 17 kts 121°
2026-05-06 09:40 52.30406 4.77065 -3 ft 19 kts 58°
2026-05-06 09:41 52.30476 4.77248 -3 ft 19 kts 58°
2026-05-06 09:41 52.30548 4.77434 -3 ft 18 kts 57°
2026-05-06 09:41 52.30635 4.77577 -2 ft 18 kts 21°
2026-05-06 09:41 52.30764 4.77597 -2 ft 19 kts
2026-05-06 09:42 52.30902 4.77610 -2 ft 20 kts
2026-05-06 09:42 52.31047 4.77624 -2 ft 21 kts
2026-05-06 09:42 52.31199 4.77638 -2 ft 22 kts
2026-05-06 09:42 52.31353 4.77655 -2 ft 22 kts
2026-05-06 09:43 52.31499 4.77586 -2 ft 23 kts 320°
2026-05-06 09:43 52.31566 4.77447 -2 ft 13 kts 294°
2026-05-06 09:43 52.31574 4.77308 -3 ft 12 kts 274°
2026-05-06 09:43 52.31573 4.77180 -3 ft 11 kts 267°
2026-05-06 09:44 52.31569 4.77065 -3 ft 10 kts 266°
2026-05-06 09:44 52.31564 4.76934 -3 ft 12 kts 266°
2026-05-06 09:44 52.31561 4.76845 -3 ft 12 kts 266°
2026-05-06 09:44 52.31556 4.76720 -3 ft 11 kts 267°
2026-05-06 09:45 52.31551 4.76524 -2 ft 20 kts 268°
2026-05-06 09:45 52.31540 4.76235 -2 ft 18 kts 266°
2026-05-06 09:45 52.31536 4.76098 -2 ft 20 kts 266°
2026-05-06 09:45 52.31527 4.75847 -2 ft 22 kts 266°
2026-05-06 09:46 52.31516 4.75527 -3 ft 20 kts 267°
2026-05-06 09:46 52.31511 4.75379 -3 ft 19 kts 266°
2026-05-06 09:46 52.31503 4.75174 -3 ft 17 kts 266°
2026-05-06 09:46 52.31497 4.74988 -2 ft 16 kts 267°
2026-05-06 09:47 52.31490 4.74812 -2 ft 15 kts 266°
2026-05-06 09:47 52.31513 4.74687 -2 ft 11 kts 321°
2026-05-06 09:47 52.31587 4.74660 0 ft 10 kts 357°
2026-05-06 09:47 52.31658 4.74706 0 ft 14 kts 58°
2026-05-06 09:48 52.31672 4.74884 -4 ft 22 kts 86°
2026-05-06 09:48 52.31693 4.75491 -7 ft 88 kts 87°
2026-05-06 09:48 52.31739 4.76807 -3 ft 141 kts 87°
2026-05-06 09:48 52.31830 4.78561 363 ft 159 kts 81°
2026-05-06 09:49 52.31906 4.80389 1050 ft 161 kts 82°
2026-05-06 09:49 52.31965 4.82261 1654 ft 172 kts 83°
2026-05-06 09:49 52.32033 4.84313 1977 ft 194 kts 84°
2026-05-06 09:49 52.32038 4.86632 2339 ft 218 kts 97°
2026-05-06 09:50 52.31484 4.89111 2798 ft 244 kts 110°
2026-05-06 09:50 52.30788 4.91709 3635 ft 252 kts 110°
2026-05-06 09:50 52.30078 4.94364 4564 ft 258 kts 110°
2026-05-06 09:50 52.29409 4.97122 5427 ft 264 kts 105°
2026-05-06 09:51 52.28864 5.00024 6286 ft 270 kts 103°
2026-05-06 09:51 52.28344 5.03006 7105 ft 275 kts 102°
2026-05-06 09:51 52.27834 5.06013 7936 ft 280 kts 102°
2026-05-06 09:51 52.27308 5.09104 8812 ft 284 kts 103°
2026-05-06 09:52 52.26771 5.12233 9689 ft 288 kts 104°
2026-05-06 09:52 52.26213 5.15447 10252 ft 303 kts 105°
2026-05-06 09:52 52.25616 5.18886 10520 ft 327 kts 104°
2026-05-06 09:52 52.24968 5.22587 10868 ft 346 kts 105°
2026-05-06 09:53 52.24065 5.26219 11497 ft 354 kts 117°
2026-05-06 09:53 52.22720 5.29614 12223 ft 359 kts 125°
2026-05-06 09:53 52.21259 5.32958 12936 ft 363 kts 125°
2026-05-06 09:53 52.19788 5.36341 13663 ft 368 kts 125°
2026-05-06 09:54 52.18299 5.39777 14329 ft 371 kts 125°
2026-05-06 09:54 52.16801 5.43227 15055 ft 373 kts 124°
2026-05-06 09:54 52.15299 5.46681 15755 ft 375 kts 125°
2026-05-06 09:54 52.13779 5.50164 16397 ft 378 kts 125°
2026-05-06 09:55 52.12265 5.53627 17040 ft 381 kts 126°
2026-05-06 09:55 52.10720 5.57154 17678 ft 385 kts 126°
2026-05-06 09:55 52.09130 5.60775 17843 ft 400 kts 126°
2026-05-06 09:55 52.07479 5.64529 17991 ft 414 kts 126°
2026-05-06 09:56 52.05730 5.68340 18132 ft 427 kts 130°
2026-05-06 09:56 52.03753 5.72047 18314 ft 437 kts 131°
2026-05-06 09:56 52.01750 5.75785 18665 ft 441 kts 131°
2026-05-06 09:56 51.99724 5.79550 19087 ft 443 kts 131°
2026-05-06 09:57 51.97717 5.83277 19475 ft 445 kts 132°
2026-05-06 09:57 51.95672 5.87076 19878 ft 447 kts 131°
2026-05-06 09:57 51.93631 5.90880 20257 ft 448 kts 131°
2026-05-06 09:57 51.91577 5.94720 20608 ft 451 kts 131°
2026-05-06 09:58 51.89516 5.98570 20973 ft 453 kts 131°
2026-05-06 09:58 51.87443 6.02433 21269 ft 457 kts 131°
2026-05-06 09:58 51.85338 6.06336 21614 ft 459 kts 131°
2026-05-06 09:58 51.83258 6.10175 21947 ft 461 kts 131°
2026-05-06 09:59 51.81141 6.14070 22294 ft 462 kts 132°
2026-05-06 09:59 51.79009 6.17977 22629 ft 463 kts 132°
2026-05-06 09:59 51.76864 6.21894 22926 ft 466 kts 131°
2026-05-06 09:59 51.74708 6.25827 23246 ft 467 kts 131°
2026-05-06 10:00 51.72548 6.29771 23510 ft 469 kts 131°
2026-05-06 10:00 51.70409 6.33672 23744 ft 471 kts 131°
2026-05-06 10:00 51.68229 6.37637 24030 ft 472 kts 132°
2026-05-06 10:00 51.66040 6.41607 24284 ft 474 kts 132°
2026-05-06 10:01 51.63843 6.45586 24578 ft 474 kts 132°
2026-05-06 10:01 51.61645 6.49561 24831 ft 475 kts 131°
2026-05-06 10:01 51.59435 6.53547 25036 ft 478 kts 131°
2026-05-06 10:01 51.57246 6.57488 25280 ft 479 kts 131°
2026-05-06 10:02 51.55019 6.61497 25491 ft 481 kts 131°
2026-05-06 10:02 51.52792 6.65509 25941 ft 479 kts 131°
2026-05-06 10:02 51.50581 6.69489 26472 ft 475 kts 131°
2026-05-06 10:02 51.48379 6.73447 27005 ft 472 kts 131°
2026-05-06 10:03 51.46216 6.77324 27447 ft 470 kts 131°
2026-05-06 10:03 51.44036 6.81217 27858 ft 469 kts 131°
2026-05-06 10:03 51.41859 6.85101 28216 ft 468 kts 131°
2026-05-06 10:03 51.39695 6.89001 28605 ft 467 kts 130°
2026-05-06 10:04 51.37604 6.93000 28924 ft 467 kts 129°
2026-05-06 10:04 51.35591 6.97054 29543 ft 461 kts 127°
2026-05-06 10:04 51.33656 7.01051 29874 ft 459 kts 127°
2026-05-06 10:04 51.31713 7.05075 29814 ft 456 kts 127°
2026-05-06 10:05 51.27646 7.12862 29814 ft 455 kts 136°
2026-05-06 10:05 51.25186 7.16033 29565 ft 455 kts 146°
2026-05-06 10:05 51.22416 7.18532 29273 ft 458 kts 153°
2026-05-06 10:06 51.19582 7.20741 28986 ft 460 kts 153°
2026-05-06 10:06 51.16703 7.23013 28682 ft 461 kts 153°
2026-05-06 10:06 51.13828 7.25299 27947 ft 462 kts 153°
2026-05-06 10:06 51.10952 7.27593 27264 ft 463 kts 153°
2026-05-06 10:07 51.08087 7.29917 26541 ft 459 kts 153°
2026-05-06 10:07 51.05262 7.32248 25845 ft 456 kts 153°
2026-05-06 10:07 51.02465 7.34579 25157 ft 451 kts 153°
2026-05-06 10:07 50.99707 7.36881 24463 ft 446 kts 153°
2026-05-06 10:08 50.96974 7.39181 23838 ft 441 kts 151°
2026-05-06 10:08 50.94532 7.42113 23581 ft 442 kts 136°
2026-05-06 10:08 50.92643 7.45961 23335 ft 444 kts 121°
2026-05-06 10:08 50.91268 7.50286 23048 ft 444 kts 117°
2026-05-06 10:09 50.89927 7.54687 22752 ft 442 kts 119°
2026-05-06 10:09 50.88255 7.58733 22481 ft 437 kts 131°
2026-05-06 10:09 50.86364 7.62505 22207 ft 436 kts 131°
2026-05-06 10:09 50.84472 7.66252 21937 ft 435 kts 131°
2026-05-06 10:10 50.82575 7.69983 21672 ft 434 kts 132°
2026-05-06 10:10 50.80682 7.73694 21405 ft 432 kts 132°
2026-05-06 10:10 50.78790 7.77403 21145 ft 431 kts 132°
2026-05-06 10:10 50.76934 7.81045 20888 ft 430 kts 131°
2026-05-06 10:11 50.75060 7.84731 20631 ft 428 kts 131°
2026-05-06 10:11 50.73195 7.88391 20355 ft 427 kts 132°
2026-05-06 10:11 50.71336 7.92027 20132 ft 425 kts 132°
2026-05-06 10:11 50.69477 7.95649 19872 ft 424 kts 132°
2026-05-06 10:12 50.67619 7.99262 19601 ft 423 kts 133°
2026-05-06 10:12 50.65770 8.02862 19357 ft 421 kts 133°
2026-05-06 10:12 50.63922 8.06462 19113 ft 420 kts 133°
2026-05-06 10:12 50.62086 8.10042 18852 ft 419 kts 133°
2026-05-06 10:13 50.60278 8.13559 18616 ft 417 kts 133°
2026-05-06 10:13 50.58450 8.17101 18370 ft 416 kts 132°
2026-05-06 10:13 50.56624 8.20628 18124 ft 415 kts 132°
2026-05-06 10:13 50.54800 8.24147 17864 ft 413 kts 132°
2026-05-06 10:14 50.52982 8.27656 17569 ft 412 kts 132°
2026-05-06 10:14 50.51163 8.31159 16573 ft 416 kts 132°
2026-05-06 10:14 50.49349 8.34650 16127 ft 407 kts 132°
2026-05-06 10:14 50.47576 8.38064 15585 ft 400 kts 132°
2026-05-06 10:15 50.45843 8.41396 15025 ft 396 kts 132°
2026-05-06 10:15 50.44105 8.44732 14468 ft 391 kts 132°
2026-05-06 10:15 50.42393 8.48010 13927 ft 387 kts 132°
2026-05-06 10:15 50.40695 8.51252 13569 ft 378 kts 132°
2026-05-06 10:16 50.39057 8.54379 13440 ft 363 kts 132°
2026-05-06 10:16 50.37510 8.57340 13299 ft 338 kts 132°
2026-05-06 10:16 50.36090 8.60055 13155 ft 315 kts 133°
2026-05-06 10:16 50.34713 8.62677 12985 ft 307 kts 133°
2026-05-06 10:17 50.33427 8.65314 12715 ft 306 kts 123°
2026-05-06 10:17 50.32493 8.68317 12402 ft 306 kts 118°
2026-05-06 10:17 50.31597 8.71328 12077 ft 304 kts 118°
2026-05-06 10:17 50.30707 8.74333 11697 ft 304 kts 118°
2026-05-06 10:18 50.29817 8.77328 11321 ft 304 kts 118°
2026-05-06 10:18 50.28933 8.80293 10941 ft 303 kts 118°
2026-05-06 10:18 50.28041 8.83286 10494 ft 305 kts 118°
2026-05-06 10:18 50.27140 8.86309 10049 ft 307 kts 118°
2026-05-06 10:19 50.26229 8.89364 9603 ft 312 kts 118°
2026-05-06 10:19 50.25278 8.92437 9063 ft 314 kts 123°
2026-05-06 10:19 50.23873 8.94981 8530 ft 309 kts 146°
2026-05-06 10:19 50.21989 8.96507 8021 ft 303 kts 167°
2026-05-06 10:20 50.19951 8.96847 7514 ft 296 kts 186°
2026-05-06 10:20 50.17941 8.96602 6990 ft 283 kts 188°
2026-05-06 10:20 50.16080 8.95792 6449 ft 271 kts 210°
2026-05-06 10:20 50.14636 8.94083 6154 ft 251 kts 229°
2026-05-06 10:21 50.13708 8.91891 5844 ft 239 kts 246°
2026-05-06 10:21 50.13126 8.89488 5510 ft 236 kts 249°
2026-05-06 10:21 50.12569 8.87091 5176 ft 234 kts 249°
2026-05-06 10:21 50.12011 8.84712 4842 ft 233 kts 249°
2026-05-06 10:22 50.11454 8.82347 4512 ft 231 kts 249°
2026-05-06 10:22 50.10904 8.80015 4185 ft 230 kts 249°
2026-05-06 10:22 50.10353 8.77679 3847 ft 229 kts 249°
2026-05-06 10:22 50.09811 8.75385 3517 ft 226 kts 248°
2026-05-06 10:23 50.09279 8.73133 3208 ft 217 kts 248°
2026-05-06 10:23 50.08760 8.70943 2895 ft 215 kts 249°
2026-05-06 10:23 50.08243 8.68764 2588 ft 211 kts 248°
2026-05-06 10:23 50.07740 8.66640 2282 ft 208 kts 248°
2026-05-06 10:24 50.07251 8.64581 1986 ft 196 kts 248°
2026-05-06 10:24 50.06800 8.62682 1736 ft 176 kts 248°
2026-05-06 10:24 50.06402 8.61003 1515 ft 154 kts 247°
2026-05-06 10:24 50.06050 8.59520 1282 ft 139 kts 248°
2026-05-06 10:25 50.05717 8.58120 1073 ft 138 kts 247°
2026-05-06 10:25 50.05390 8.56755 848 ft 131 kts 246°
2026-05-06 10:25 50.05076 8.55419 672 ft 132 kts 248°
2026-05-06 10:25 50.04755 8.54088 535 ft 132 kts 246°
2026-05-06 10:26 50.04448 8.52748 360 ft 130 kts 235°
2026-05-06 10:26 50.04202 8.51784 336 ft 49 kts 250°
2026-05-06 10:26 50.04107 8.51394 329 ft 36 kts 249°
2026-05-06 10:26 50.04020 8.51090 326 ft 28 kts 233°
2026-05-06 10:27 50.03909 8.50919 323 ft 22 kts 220°
2026-05-06 10:27 50.03818 8.50837 332 ft 11 kts 180°
2026-05-06 10:27 50.03772 8.50903 333 ft 10 kts 116°
2026-05-06 10:27 50.03719 8.51072 336 ft 20 kts 116°
2026-05-06 10:28 50.03660 8.51259 356 ft 19 kts 116°
2026-05-06 10:28 50.03605 8.51429 362 ft 16 kts 116°
2026-05-06 10:28 50.03558 8.51584 357 ft 16 kts 115°
2026-05-06 10:28 50.03511 8.51748 357 ft 17 kts 103°
2026-05-06 10:29 50.03516 8.51869 352 ft 18 kts 83°
2026-05-06 10:29 50.03532 8.52072 353 ft 19 kts 83°
2026-05-06 10:29 50.03549 8.52289 335 ft 21 kts 82°
2026-05-06 10:29 50.03593 8.52493 335 ft 19 kts 79°
2026-05-06 10:30 50.03609 8.52681 337 ft 17 kts 71°
2026-05-06 10:30 50.03628 8.52832 341 ft 13 kts 109°
2026-05-06 10:30 50.03585 8.52952 340 ft 13 kts 91°
2026-05-06 10:30 50.03612 8.53081 335 ft 12 kts 69°
2026-05-06 10:31 50.03638 8.53194 339 ft 12 kts 70°
2026-05-06 10:31 50.03675 8.53348 347 ft 15 kts 69°
2026-05-06 10:31 50.03707 8.53487 342 ft 13 kts 79°
2026-05-06 10:31 50.03666 8.53598 344 ft 13 kts 117°
2026-05-06 10:32 50.03665 8.53682 347 ft 3 kts 128°
2026-05-06 10:32 50.03644 8.53700 348 ft 4 kts 156°
2026-05-06 10:32 50.03620 8.53715 336 ft 4 kts 159°
2026-05-06 10:32 50.03599 8.53727 339 ft 0 kts 159°